Location: Unspecified
(0.0000°N, 0.0000°E)
Time: 03:55:09
(UTC+00:00)

ISS - Pass Details

Date: 20 September 2017
Orbit: 401 x 407 km, 51.6° (Epoch: 23 September)

Event Time Altitude Azimuth Distance (km) Brightness Sun altitude
Rises 18:38:05 0° 213° (SSW) 2,308 0.5 -11.2°
Reaches altitude 10° 18:40:09 10° 211° (SSW) 1,448 -0.6 -11.7°
Maximum altitude 18:43:24 76° 125° (SE) 416 -4.0 -12.5°
Enters shadow 18:46:16 13° 40° (NE) 1,295 -1.6 -13.2°
